Location: Berry Creek
(51.8849°N, 111.7341°W)
Time: 12:32:21
(UTC-06:00)

Daily predictions for brighter satellites

Satellite Brightness Start Highest point End
(mag) Time Altitude Azimuth Time Altitude Azimuth Time Altitude Azimuth
NOSS 3-2 (C) 3.8 21:55:14 10° SW 22:01:26 80° NW 22:08:24 10° NE
COSMOS 2455 2.9 21:57:50 10° SSW 22:03:51 85° SE 22:09:55 10° NE
Meteor 1-27 Rocket 3.8 22:01:06 10° N 22:06:55 75° ENE 22:12:33 10° SSE
Cosmos 372 Rocket 4.1 22:02:00 10° S 22:06:58 55° ESE 22:11:58 10° NNE
Cosmos 2221 Rocket 4.4 22:03:21 10° NNW 22:07:41 53° W 22:12:01 10° S
CENTAUR R/B 2.7 22:02:17 10° SSW 22:08:17 56° SE 22:15:11 10° NE
Cosmos 2251 Rocket 3.9 22:04:25 10° NNW 22:09:33 51° ENE 22:14:39 10° SE
Helios 1A 4.3 22:05:38 10° S 22:09:37 41° W 22:13:38 10° NNW
Cosmos 1674 Rocket 4.0 22:06:18 10° N 22:10:29 45° ENE 22:14:37 10° SSE
Cosmos 1825 2.1 22:06:48 10° S 22:10:33 73° E 22:14:21 10° NNE
SL-08 RB Rocket 3.9 22:11:56 10° SSE 22:16:35 68° ENE 22:21:14 10° N
Okean 3 4.4 22:12:47 10° N 22:16:37 33° ENE 22:20:26 10° SE
Cosmos 1782 4.1 22:20:23 10° NNW 22:24:09 40° W 22:27:52 10° SSW
SPOT 1/Viking Rocket 3.7 22:20:37 10° SSE 22:25:47 68° ENE 22:31:00 10° N
Cosmos 1125 Rocket 3.5 22:22:12 10° SSW 22:27:27 90° E 22:32:42 10° NNE
MetOp-A 4.5 22:23:24 10° S 22:28:43 67° WSW 22:34:05 10° NNW
H-2A R/B 3.4 22:27:46 10° ESE 22:31:08 25° ENE 22:34:32 10° N
Cosmos 2227 Rocket 3.3 22:26:26 10° NNW 22:31:38 35° NE 22:36:47 10° ESE
CZ-4C R/B 4.0 22:26:27 10° NW 22:32:23 36° NNE 22:39:07 10° E
Cosmos 1340 4.0 22:35:31 10° NNW 22:39:03 37° W 22:42:34 10° SSW
Cosmos 1812 3.7 22:36:33 10° N 22:40:06 33° ENE 22:42:56 14° SE
Cosmos 2219 3.3 22:35:00 10° NNW 22:40:48 82° ENE 22:45:59 13° SSE
Cosmos 1943 Rocket 2.2 22:36:07 10° SSW 22:41:43 87° WNW 22:47:18 10° NNE
Meteor 1-29 4.5 22:41:53 10° N 22:45:11 40° WNW 22:48:28 10° SW
ATLAS 3B R/B 4.5 22:38:44 10° W 22:45:17 36° NNW 22:51:35 10° NE
Cosmos 494 Rocket 4.1 22:40:09 10° NNW 22:45:24 77° WSW 22:50:12 12° SSE
Nadezhda 4 Rocket 4.0 22:40:13 10° S 22:46:22 74° E 22:52:31 10° NNE
YAOGAN 11 4.5 22:42:21 10° S 22:46:52 67° WSW 22:51:21 10° NNW
Cosmos 1092 Rocket 4.1 22:41:43 10° SSE 22:47:41 56° E 22:53:39 10° NNE
Landsat 7 3.9 22:44:07 12° SSE 22:48:26 74° ENE 22:53:13 10° NNW
Cosmos 1862 3.6 22:47:24 10° SSW 22:51:21 71° WNW 22:55:21 10° N
GEOS 3 Rocket 3.7 22:46:59 13° SE 22:51:37 81° NE 22:56:56 10° NW
ISS -3.9 22:49:24 10° WSW 22:52:39 70° SSE 22:55:55 10° E
Cosmos 1908 Rocket 4.0 22:49:46 13° SSE 22:53:29 44° E 22:57:43 10° NNE
Cosmos 1867 4.2 22:52:01 10° NW 22:57:17 50° WSW 23:01:48 14° SSE
Helios 1B rocket 4.4 22:53:45 10° N 22:57:25 31° WNW 23:01:04 10° SW
Cosmos 405 Rocket 3.0 22:59:14 10° N 23:02:52 48° ENE 23:05:11 20° SE
Terra 1.9 22:59:48 16° SSE 23:03:37 73° ENE 23:08:24 10° NNW
H-2A R/B 2.6 23:01:20 10° S 23:06:39 60° W 23:11:53 10° NNW
Lacrosse 4 Rocket 3.8 23:05:05 10° WNW 23:08:01 17° WSW 23:10:55 10° SSW
Okean 2 Rocket 4.2 23:06:24 18° SE 23:08:43 28° E 23:12:32 10° NNE
APEX 3.7 23:05:25 10° NNW 23:10:15 62° NE 23:12:47 20° SE
Cosmos 2369 Rocket 3.7 23:06:37 10° WSW 23:11:56 39° NW 23:17:19 10° NNE
Cosmos 1437 3.6 23:09:20 10° NNW 23:12:25 44° W 23:14:50 15° SSW
Gbstr 26 Del rocket 3.1 23:10:30 10° W 23:15:05 55° SSW 23:17:34 21° SE
Cosmos 1733 Rocket 3.7 23:12:11 10° SSW 23:16:25 54° WNW 23:20:42 10° N
Okean 1 3.8 23:15:32 10° N 23:19:25 47° ENE 23:21:37 23° SE
ATLAS CENTAUR R/B 1.6 23:17:27 12° SSW 23:20:52 40° SE 23:24:28 10° NE
Cosmos 1782 Rocket 3.9 23:18:19 20° SSE 23:21:06 49° E 23:25:21 10° NNE
ATLAS 5 CENTAUR R/B 4.4 23:17:55 10° WNW 23:21:58 19° WSW 23:26:14 10° SSW
CZ-4C R/B 4.3 23:19:36 19° SE 23:22:04 38° ENE 23:25:49 10° N
Cosmos 1346 4.4 23:20:59 10° NNW 23:23:24 30° W 23:25:04 16° SSW
Nimbus 7 Rocket 4.4 23:17:32 10° NNE 23:23:29 88° WNW 23:29:21 10° SSW
Cosmos 2297 Rocket 2.5 23:20:27 10° NNW 23:26:06 61° NE 23:30:09 19° SE
Cosmos 1441 Rocket 3.4 23:22:18 10° N 23:26:09 58° ENE 23:28:08 25° SE
Meteor 1-18 Rocket 4.3 23:20:50 10° NNW 23:26:36 86° ENE 23:30:51 19° SSE
PSLV R/B 3.3 23:25:57 32° SE 23:26:53 47° ENE 23:29:35 10° N
CZ-2C R/B 4.1 23:26:42 15° ESE 23:29:59 31° ENE 23:34:12 10° N
Lacrosse 5 rocket 1.9 23:27:07 10° W 23:30:40 52° NNW 23:34:22 10° ENE
ARGOS Delta rocket 4.3 23:28:06 10° NNE 23:32:18 37° E 23:34:20 24° SE
USA 215 4.3 23:28:10 15° S 23:32:38 32° SW 23:38:23 10° WNW
Cosmos 1656 Rocket 3.8 23:30:28 10° SW 23:35:57 74° WNW 23:41:33 10° NNE
BREEZE-M DEB 3.4 23:26:56 10° W 23:36:31 69° S 23:39:03 16° E
BREEZE M DEB (TANK) 3.2 23:29:33 10° WSW 23:36:32 50° S 23:38:46 16° E
Cosmos 2344 3.8 23:29:13 10° SW 23:36:57 89° NW 23:46:16 10° NE
Cosmos 1975 Rocket 3.1 23:32:33 10° NNW 23:37:03 80° W 23:39:51 23° S
Sich 1 Rocket 3.7 23:33:32 14° SSW 23:37:17 78° W 23:41:43 10° N
CZ-4 R/B 3.9 23:40:27 10° NNE 23:45:02 55° E 23:47:32 25° S
Spot 4 3.8 23:43:17 24° SSE 23:46:13 89° WSW 23:51:04 10° NNW
CARTOSAT-1 4.5 23:47:30 18° SSW 23:50:24 41° W 23:54:34 10° NNW
Cosmos 1633 2.8 23:49:37 34° SSE 23:50:45 48° E 23:54:14 10° NNE
Cosmos 2082 3.7 23:47:17 10° NNW 23:53:04 89° ENE 23:56:32 25° SSE
ALOS 2 3.8 23:52:03 20° ESE 23:54:22 32° ENE 23:58:17 10° N
